Flag for Germany Weather past 2 weeks in Titisee-Neustadt, Baden-Württemberg, Germany

Now
52 °F

Scattered clouds.


Feels Like: 51 °F
Forecast: 35 / 63 °F
Wind: 5 mph from Southwest

Location: Freiburg

Current Time: May 7, 2015 at 8:38:28 AM

Latest Report: May 7, 2015 at 7:00 AM


Visibility: 44 mi

Pressure: 30.16 "Hg

Humidity: 68%

Dew point: 42 °F

Location of Titisee-NeustadtLocation

Historic Weather in Titisee-Neustadt — Graph

°F

Titisee-Neustadt temperature yesterday

Maximum temperature yesterday: 68 °F (at 4:00 PM)
Minimum temperature yesterday: 55 °F (at 7:00 AM)
Average temperature yesterday: 61 °F

Past Weeks' High & Low Weather Summary

 TemperatureHumidityPressure
High77 °F (May 4, 5:00 PM)100% (May 2, 3:00 AM)30.33 "Hg (May 2, 3:00 AM)
Low33 °F (Apr 29, 6:00 AM)17% (Apr 22, 4:00 PM)29.50 "Hg (Apr 27, 3:00 PM)
Average56 °F73%29.90 "Hg
* Reported Apr 22 7:00 AM — May 7 7:00 AM, Titisee-Neustadt, Weather by CustomWeather, © 2015

Note: Actual official high and low records may vary slightly from our data, if they occured in-between our weather recording intervals... More about our weather records

Advertising

Titisee-Neustadt weather history for previous 24 hours

 ConditionsComfort  
Time TempWeatherWind HumidityBarometerVisibility
7:00 AM
Thu, May 7
52 °FScattered clouds.5 mph68%30.16 "Hg43 mi
6:00 AM51 °FClear.5 mph69%30.16 "Hg43 mi
5:00 AM49 °FPassing clouds.3 mph76%30.16 "Hg43 mi
4:00 AM49 °FPassing clouds.2 mph77%30.15 "Hg43 mi
3:00 AMN/APassing clouds.1 mphN/AN/A7 mi
1:00 AM51 °FOvercast.2 mph77%30.14 "Hg43 mi
12:00 AM54 °FPassing clouds.3 mph64%30.11 "Hg43 mi
10:00 PM
Wed, May 6
57 °FClear.3 mph59%30.08 "Hg43 mi
9:00 PM60 °FPassing clouds.6 mph56%30.05 "Hg43 mi
8:00 PM63 °FOvercast.7 mph48%30.03 "Hg14 mi
7:00 PM65 °FOvercast.7 mph45%30.00 "Hg28 mi
6:00 PM66 °FOvercast.7 mph45%29.99 "Hg43 mi
4:00 PM68 °FPartly sunny.8 mph39%29.98 "Hg16 mi
3:00 PM67 °FScattered clouds.8 mph39%29.99 "Hg19 mi
1:00 PM65 °FPartly sunny.7 mph48%30.01 "Hg7 mi
12:00 PM63 °FSunny.8 mph48%30.03 "Hg13 mi
11:00 AM61 °FScattered clouds.6 mph56%30.03 "Hg16 mi
10:00 AM58 °FOvercast.5 mph63%30.03 "Hg43 mi
9:00 AM57 °FOvercast.1 mph76%30.03 "Hg43 mi
Weather by CustomWeather, © 2015

See weather overviewHow to use our weather pages